Regional Weather Roundup
Issued by NWS

Home | Current Version | Previous Version | Text Only | Print | Product List | Glossary Off
Versions: 1 2 3 4 5 6 7 8 9 10 11 12 13 14 15 16 17 18 19 20 21 22 23 24 25 26 27 28 29 30 31 32 33 34 35 36 37 38 39 40 41 42 43 44 45 46 47 48 49 50

000
ASUS43 KLSX 250057
RWRMO

WEATHER SUMMARY FOR MISSOURI
NATIONAL WEATHER SERVICE SPRINGFIELD MO
800 PM CDT FRI MAR 24 2017

NOTE: "FAIR" INDICATES FEW OR NO CLOUDS BELOW 12,000 FEET WITH NO
       SIGNIFICANT WEATHER AND/OR OBSTRUCTIONS TO VISIBILITY.
       CURRENT SKY AND/OR WEATHER CONDITIONS ARE NOT AVAILABLE FOR
       CHILLICOTHE AND FARMINGTON.

MOZ001>031-035>038-043-044-053-054-250200-
...NORTHERN AND WESTERN MISSOURI...

CITY           SKY/WX    TMP DP  RH WIND       PRES   REMARKS
KANSAS CTY INT CLOUDY    60  58  92 SE13      29.82F
LEE`S SUMMIT   CLOUDY    59  57  93 SE13      29.84F
ST JOSEPH      CLOUDY    58  58 100 N3        29.84F
CHILLICOTHE      N/A     58  58 100 E7        29.87F

$$
MOZ066>068-077>081-088>096-101>105-250200-
...SOUTHWEST MISSOURI...

CITY           SKY/WX    TMP DP  RH WIND       PRES   REMARKS
SPRINGFIELD    RAIN      59  58  96 W8        29.91R FOG
JOPLIN         CLOUDY    61  58  90 SE15G22   29.76F
BRANSON        LGT RAIN  59  59 100 CALM      29.86F FOG

$$
MOZ032>034-039>042-045>050-055>058-069>072-250200-
...CENTRAL MISSOURI...

CITY           SKY/WX    TMP DP  RH WIND       PRES   REMARKS
COLUMBIA       NOT AVBL
JEFFERSON CITY CLOUDY    67  55  65 N3        29.91F
ROLLA          CLOUDY    68  53  58 SE8       29.90F
SEDALIA        CLOUDY    60  58  92 SE9       29.89F
WARRENSBURG    CLOUDY    57  55  94 SE10      29.85F

$$
MOZ051-052-059>065-250200-
...EAST CENTRAL MISSOURI...

CITY           SKY/WX    TMP DP  RH WIND       PRES   REMARKS
ST LOUIS INTL  CLOUDY    73  54  51 S13       29.97R

$$
MOZ072>076-082>087-097>100-106>115-250200-
...SOUTH CENTRAL AND SOUTHEAST MISSOURI...

CITY           SKY/WX    TMP DP  RH WIND       PRES   REMARKS
CAPE GIRARDEAU PTCLDY    67  56  67 SE10      30.02R
POPLAR BLUFF   CLOUDY    69  59  70 SE10      29.97F
WEST PLAINS    MOCLDY    69  55  60 SE8       29.91F

$$



USA.gov is the U.S. government's official web portal to all federal, state and local government web resources and services.